Home > Time Zones > World Clock > Weather > India > Surat > Past weeks

Flag for India Weather past 2 weeks in Surat, Gujarat, India

Now
108 °F

Clear.


Feels Like: 115 °F
Forecast: 84 / 93 °F
Wind: 9 mph from West

Location: Ahmadabad Airport

Current Time: May 25, 2015 at 7:28:51 PM

Latest Report: May 25, 2015 at 6:40 PM


Visibility: 4 mi

Pressure: 29.59 "Hg

Humidity: 28%

Dew point: 68 °F

Location of SuratLocation

Historic Weather in Surat — Graph

°F

Surat temperature yesterday

Maximum temperature yesterday: 113 °F (at 3:40 PM)
Minimum temperature yesterday: 84 °F (at 6:40 AM)
Average temperature yesterday: 96 °F

Past Weeks' High & Low Weather Summary

 TemperatureHumidityPressure
High117 °F (May 16, 3:40 PM)75% (May 12, 7:40 AM)29.80 "Hg (May 12, 7:40 AM)
Low82 °F (May 14, 5:40 AM)10% (May 17, 5:10 PM)29.50 "Hg (May 17, 4:10 PM)
Average97 °F43%29.67 "Hg
* Reported May 10 5:40 PM — May 25 6:10 PM, Surat, Weather by CustomWeather, © 2015

Note: Actual official high and low records may vary slightly from our data, if they occured in-between our weather recording intervals... More about our weather records

Advertising

Surat weather history for previous 24 hours

 ConditionsComfort  
Time TempWeatherWind HumidityBarometerVisibility
6:10 PM
Mon, May 25
109 °FClear.8 mph28%29.59 "Hg4 mi
5:40 PM109 °FClear.13 mph27%29.59 "Hg4 mi
5:10 PM111 °FClear.10 mph22%29.56 "Hg4 mi
4:40 PM113 °FClear.14 mph21%29.56 "Hg4 mi
3:40 PM113 °FClear.10 mph22%29.59 "Hg4 mi
2:40 PM109 °FClear.10 mph28%29.62 "Hg4 mi
2:10 PM109 °FClear.9 mph28%29.62 "Hg4 mi
1:10 PM106 °FClear.13 mph34%29.68 "Hg4 mi
12:40 PM104 °FPassing clouds.10 mph35%29.71 "Hg4 mi
11:40 AM100 °FPassing clouds.13 mph45%29.71 "Hg3 mi
11:10 AM99 °FPassing clouds.10 mph47%29.71 "Hg3 mi
10:40 AM97 °FScattered clouds.12 mph53%29.74 "Hg3 mi
10:10 AM95 °FScattered clouds.10 mph53%29.74 "Hg3 mi
8:40 AM90 °FScattered clouds.12 mph63%29.74 "Hg2 mi
8:10 AM88 °FScattered clouds.12 mph66%29.74 "Hg2 mi
7:40 AM88 °FScattered clouds.9 mph62%29.74 "Hg2 mi
7:10 AM88 °FHaze.8 mph62%29.74 "Hg2 mi
6:40 AM86 °FHaze.10 mph66%29.74 "Hg2 mi
5:40 AM86 °FHaze.9 mph66%29.71 "Hg2 mi
5:10 AM88 °FClear.9 mph62%29.68 "Hg2 mi
4:40 AM88 °FClear.10 mph62%29.68 "Hg2 mi
3:40 AM88 °FClear.9 mph62%29.65 "Hg2 mi
1:40 AM90 °FClear.15 mph59%29.65 "Hg2 mi
1:10 AM91 °FClear.12 mph56%29.65 "Hg2 mi
12:40 AM93 °FClear.9 mph53%29.65 "Hg2 mi
12:10 AM93 °FClear.8 mph53%29.65 "Hg2 mi
10:40 PM
Sun, May 24
93 °FClear.6 mph59%29.65 "Hg2 mi
10:10 PM93 °FClear.5 mph59%29.65 "Hg2 mi
9:40 PM93 °FClear.9 mph59%29.65 "Hg2 mi
9:10 PM93 °FClear.9 mph59%29.65 "Hg2 mi
8:40 PM93 °FDuststorm.10 mph63%29.62 "Hg2 mi
7:40 PM95 °FDuststorm.13 mph56%29.62 "Hg2 mi
Weather by CustomWeather, © 2015

See weather overviewHow to use our weather pages